User: anonymous   Login
Location: Unspecified
(0.0000°N, 0.0000°E)
Time: 12:55:02
(UTC+00:00)
Language:

AIST 2D - Orbit

View from above orbital plane
View from above orbital plane
View from above satellite
View from above satellite

Ground track
Ground track

The orbit data is extracted from the following two-line orbital elements,

1 41465U 16026B   19021.91472429  .00000940  00000-0  31480-4 0  9999
2 41465  97.2053 281.1018 0009863 299.3539 124.0004 15.33337423152851
Epoch (UTC): 21 January 2019 21:57:12
Eccentricity: 0.0009863
inclination: 97.2053°
perigee height: 459 km
apogee height: 472 km
right ascension of ascending node: 281.1018°
argument of perigee: 299.3539°
revolutions per day: 15.33337423
mean anomaly at epoch: 124.0004°
orbit number at epoch: 15285

The dashed part of the orbit path shows where the satellite is in the earth's shadow,  

DLR